User: anonymous   Login
Location: Unspecified
(0.0000°N, 0.0000°E)
Time: 00:12:23
(UTC+00:00)
Language:

A-11 Canister half - Orbit

View from above orbital plane
View from above orbital plane
View from above satellite
View from above satellite

Ground track
Ground track

The orbit data is extracted from the following two-line orbital elements,

1 00053U 60009E   15062.45980063 -.00000085  00000-0  00000+0 0  9995
2 00053 047.2752 099.6058 0097718 130.6140 230.3198 12.17161834433135
Epoch (UTC): 03 March 2015 11:02:06
Eccentricity: 0.0097718
inclination: 47.2752°
perigee height: 1527 km
apogee height: 1683 km
right ascension of ascending node: 99.6058°
argument of perigee: 130.6140°
revolutions per day: 12.17161834
mean anomaly at epoch: 230.3198°
orbit number at epoch: 43313

The dashed part of the orbit path shows where the satellite is in the earth's shadow,  

DLR